Погода в Фуа

Франция     42°57′50″N   1°36′12″E
темп.,
°C
ветер,
м/с
пор.,
м/с
влажн.,
%
обл.,
%
осадки,
мм/ч
давл.,
гПа
погр.,
м
25 января, пн
пн2501:00+4юз41482100 0.1 1008989
04:00+5зюз21293100 0.6 10091097
07:00+5зюз21096100 2.9 1008812
10:00+5з2898100 3.9 1009626
13:00+5сз2397100 7.0 1009251
16:00+3сз2597100 2.0 1009386
19:00+3зсз3696100 4.3 1013489
22:00+3зсз3797100 1.5 1017472
26 января, вт
вт2601:00+1сз249698 3.1 1020321
04:000з239699 0.1 1021203
07:00−2ююз129275 0.2 102322
10:00+1ю11740 0.0 102488
13:00+5св116545 0.0 1024333
16:00+5св116934 0.0 1022278
19:00+1ю128022 0.0 102422
22:00+2ю227078 0.0 102523
27 января, ср
ср2701:00+3ююз226662 0.0 102426
04:00+6юз228485 0.0 102328
07:00+7юз129492 1.6 102223
10:00+8юз129378 0.8 102328
13:00+8юз239689 3.4 1023104
16:00+9зюз31096100 2.8 1021613
19:00+9зюз31097100 3.9 1023573
22:00+10юз2690100 1.1 1023202
28 января, чт
чт2801:00+9юз228995 1.1 102451
04:00+8ююз238782 0.0 102243
07:00+8ююз338479 0.0 102233
10:00+11зюз287815 0.0 1022426
13:00+14з357512 0.0 1022708
16:00+13зсз248296 0.0 1021675
19:00+9ююз229296 0.1 102225
22:00+8ю227896 0.0 102223
29 января, пт
пт2901:00+8ю226698 0.0 102223
04:00+8ю336199 0.0 101931
07:00+8ю225999 0.0 101727
10:00+11ююз2258100 0.0 101833
13:00+12зсз3678100 0.0 1017635
16:00+11сз2489100 0.1 1014461
19:00+8ююв1191100 0.1 101323
22:00+9зюз31295100 7.3 10161070